�������l�o���
Date,Time,MP-1(��Sv/h),MP-2(��Sv/h),MP-3(��Sv/h),MP-4(��Sv/h),MP-5(��Sv/h),MP-6(��Sv/h),MP-7(��Sv/h),MP-8(��Sv/h),����,����(m/s),���J
2017/01/02,00:00,1.105,1.836,1.205,2.096,1.443,0.570,1.038,0.963,�쐼,4.4,��
2017/01/02,00:10,1.106,1.839,1.203,2.098,1.446,0.569,1.039,0.963,�쐼,5.9,��
2017/01/02,00:20,1.107,1.839,1.206,2.098,1.445,0.572,1.038,0.965,�쐼,4.9,��
2017/01/02,00:30,1.107,1.840,1.203,2.099,1.447,0.570,1.040,0.964,�쐼,5.2,��
2017/01/02,00:40,1.108,1.841,1.206,2.098,1.448,0.570,1.041,0.965,���쐼,5.4,��
2017/01/02,00:50,1.108,1.841,1.205,2.099,1.446,0.572,1.039,0.964,�쐼,3.5,��
2017/01/02,01:00,1.108,1.839,1.204,2.099,1.445,0.571,1.041,0.963,��쐼,3.3,��
2017/01/02,01:10,1.107,1.838,1.203,2.097,1.447,0.569,1.040,0.963,��쐼,4.3,��
2017/01/02,01:20,1.105,1.838,1.204,2.097,1.446,0.569,1.040,0.963,��쐼,4.4,��
2017/01/02,01:30,1.107,1.840,1.206,2.099,1.443,0.570,1.041,0.964,�쐼,3.9,��
2017/01/02,01:40,1.107,1.837,1.205,2.098,1.446,0.571,1.042,0.963,���쐼,4.7,��
2017/01/02,01:50,1.108,1.839,1.204,2.099,1.447,0.571,1.040,0.964,���쐼,5.5,��
2017/01/02,02:00,1.107,1.839,1.205,2.098,1.445,0.569,1.039,0.962,���쐼,7.0,��
2017/01/02,02:10,1.108,1.837,1.205,2.097,1.445,0.568,1.041,0.964,���쐼,6.0,��
2017/01/02,02:20,1.106,1.838,1.203,2.096,1.445,0.572,1.042,0.963,���쐼,5.1,��
2017/01/02,02:30,1.105,1.838,1.202,2.098,1.447,0.569,1.041,0.963,���쐼,4.7,��
2017/01/02,02:40,1.107,1.837,1.204,2.096,1.443,0.573,1.042,0.963,���쐼,4.5,��
2017/01/02,02:50,1.107,1.839,1.204,2.097,1.441,0.570,1.039,0.962,�쐼,4.1,��
2017/01/02,03:00,1.107,1.837,1.203,2.098,1.446,0.570,1.039,0.963,�쐼,4.4,��
2017/01/02,03:10,1.109,1.839,1.201,2.098,1.442,0.571,1.041,0.963,�쐼,5.3,��
2017/01/02,03:20,1.106,1.834,1.203,2.097,1.448,0.569,1.037,0.962,�쐼,6.0,��
2017/01/02,03:30,1.108,1.837,1.202,2.099,1.445,0.568,1.038,0.962,�쐼,5.4,��
2017/01/02,03:40,1.107,1.838,1.203,2.094,1.446,0.570,1.039,0.963,�쐼,4.9,��
2017/01/02,03:50,1.107,1.837,1.204,2.099,1.444,0.571,1.039,0.964,�쐼,6.6,��
2017/01/02,04:00,1.106,1.839,1.203,2.097,1.446,0.571,1.041,0.963,���쐼,5.9,��
2017/01/02,04:10,1.106,1.840,1.205,2.095,1.447,0.571,1.039,0.964,���쐼,6.3,��
2017/01/02,04:20,1.106,1.841,1.204,2.098,1.445,0.570,1.041,0.964,���쐼,4.6,��
2017/01/02,04:30,1.106,1.838,1.202,2.098,1.445,0.570,1.039,0.964,�쐼,3.9,��
2017/01/02,04:40,1.106,1.837,1.204,2.100,1.445,0.570,1.041,0.963,���쐼,2.8,��
2017/01/02,04:50,1.107,1.839,1.203,2.096,1.448,0.569,1.040,0.964,��쐼,1.4,��
2017/01/02,05:00,1.109,1.839,1.200,2.096,1.445,0.569,1.040,0.963,�쐼,3.0,��
2017/01/02,05:10,1.108,1.832,1.202,2.094,1.442,0.570,1.038,0.963,��쐼,4.4,��
2017/01/02,05:20,1.108,1.839,1.202,2.096,1.442,0.570,1.039,0.961,�쐼,3.7,��
2017/01/02,05:30,1.107,1.839,1.201,2.098,1.446,0.570,1.040,0.963,���쐼,2.6,��
2017/01/02,05:40,1.105,1.838,1.204,2.095,1.441,0.571,1.041,0.963,���쐼,2.5,��
2017/01/02,05:50,1.107,1.836,1.203,2.095,1.443,0.570,1.041,0.963,�쐼,2.9,��
2017/01/02,06:00,1.105,1.833,1.203,2.095,1.446,0.570,1.038,0.962,�쐼,2.0,��
2017/01/02,06:10,1.108,1.838,1.201,2.096,1.445,0.571,1.038,0.964,�쐼,2.3,��
2017/01/02,06:20,1.106,1.836,1.202,2.094,1.441,0.570,1.040,0.964,�쐼,3.0,��
2017/01/02,06:30,1.106,1.839,1.202,2.097,1.442,0.569,1.039,0.964,�쐼,3.0,��
2017/01/02,06:40,1.106,1.835,1.202,2.098,1.444,0.570,1.041,0.962,�쐼,2.8,��
2017/01/02,06:50,1.107,1.834,1.204,2.098,1.445,0.570,1.039,0.964,��쐼,2.8,��
2017/01/02,07:00,1.104,1.837,1.202,2.095,1.443,0.569,1.040,0.964,�쐼,2.8,��
2017/01/02,07:10,1.105,1.838,1.202,2.097,1.444,0.569,1.040,0.963,�쐼,3.0,��
2017/01/02,07:20,1.104,1.834,1.203,2.096,1.441,0.568,1.041,0.964,���쐼,2.2,��
2017/01/02,07:30,1.105,1.837,1.202,2.094,1.446,0.570,1.039,0.964,���쐼,2.0,��
2017/01/02,07:40,1.108,1.839,1.203,2.097,1.444,0.569,1.040,0.963,��,3.1,��
2017/01/02,07:50,1.107,1.836,1.201,2.099,1.444,0.570,1.039,0.963,��,3.5,��
2017/01/02,08:00,1.105,1.837,1.202,2.098,1.444,0.570,1.039,0.963,���k��,2.6,��
2017/01/02,08:10,1.106,1.836,1.203,2.100,1.446,0.569,1.039,0.963,�k��,1.2,��
2017/01/02,08:20,1.109,1.839,1.198,2.099,1.445,0.570,1.038,0.964,�k�k��,0.9,��
2017/01/02,08:30,1.106,1.840,1.203,2.099,1.447,0.569,1.039,0.964,��쐼,0.6,��
2017/01/02,08:40,1.107,1.839,1.203,2.097,1.447,0.570,1.038,0.965,���쐼,1.2,��
2017/01/02,08:50,1.107,1.837,1.204,2.098,1.446,0.571,1.040,0.964,�쐼,1.1,��
2017/01/02,09:00,1.107,1.841,1.203,2.100,1.446,0.570,1.038,0.962,��쐼,1.1,��
2017/01/02,09:10,1.106,1.841,1.204,2.098,1.445,0.571,1.040,0.962,��쐼,0.9,��
2017/01/02,09:20,1.108,1.841,1.203,2.101,1.446,0.571,1.040,0.965,��,0.8,��
2017/01/02,09:30,1.110,1.841,1.206,2.099,1.446,0.570,1.040,0.964,��,1.1,��
2017/01/02,09:40,1.109,1.839,1.205,2.100,1.445,0.570,1.042,0.964,��쐼,1.4,��
2017/01/02,09:50,1.107,1.840,1.204,2.100,1.446,0.571,1.040,0.963,���쐼,1.7,��
2017/01/02,10:00,1.111,1.841,1.206,2.101,1.446,0.571,1.040,0.964,���쐼,1.5,��
2017/01/02,10:10,1.111,1.842,1.205,2.100,1.447,0.571,1.041,0.963,���쐼,1.5,��
2017/01/02,10:20,1.109,1.842,1.204,2.101,1.446,0.570,1.042,0.965,��,1.4,��
2017/01/02,10:30,1.111,1.842,1.206,2.102,1.447,0.572,1.040,0.963,��,1.9,��
2017/01/02,10:40,1.110,1.844,1.207,2.102,1.449,0.571,1.041,0.966,���k��,1.2,��
2017/01/02,10:50,1.111,1.843,1.208,2.100,1.449,0.572,1.041,0.965,�k�k��,0.9,��
2017/01/02,11:00,1.111,1.841,1.205,2.102,1.449,0.573,1.042,0.964,�k�k��,1.5,��
2017/01/02,11:10,1.111,1.846,1.206,2.102,1.450,0.573,1.041,0.966,�k,1.7,��
2017/01/02,11:20,1.110,1.842,1.206,2.103,1.448,0.572,1.042,0.965,�k��,2.0,��
2017/01/02,11:30,1.111,1.842,1.206,2.101,1.448,0.572,1.041,0.965,�k�k��,0.9,��
2017/01/02,11:40,1.113,1.845,1.207,2.100,1.449,0.574,1.040,0.967,���k��,0.6,��
2017/01/02,11:50,1.110,1.845,1.206,2.101,1.453,0.572,1.041,0.966,��,0.9,��
2017/01/02,12:00,1.112,1.845,1.207,2.103,1.449,0.573,1.041,0.968,��,1.2,��
2017/01/02,12:10,1.112,1.845,1.210,2.099,1.449,0.574,1.042,0.966,���k��,1.7,��
2017/01/02,12:20,1.112,1.845,1.210,2.107,1.448,0.574,1.039,0.967,���k��,1.7,��
2017/01/02,12:30,1.111,1.844,1.207,2.101,1.448,0.573,1.041,0.967,��,1.5,��
2017/01/02,12:40,1.112,1.844,1.209,2.104,1.447,0.573,1.040,0.967,���쓌,0.9,��
2017/01/02,12:50,1.115,1.844,1.208,2.104,1.447,0.573,1.041,0.965,�쓌,1.0,��
2017/01/02,13:00,1.113,1.847,1.208,2.106,1.448,0.574,1.041,0.967,��쓌,2.6,��
2017/01/02,13:10,1.112,1.845,1.209,2.102,1.446,0.573,1.041,0.966,��,2.5,��
2017/01/02,13:20,1.112,1.845,1.209,2.104,1.451,0.571,1.040,0.967,��,1.7,��
2017/01/02,13:30,1.115,1.846,1.209,2.102,1.450,0.572,1.041,0.965,-,CALM,��
2017/01/02,13:40,1.115,1.846,1.209,2.106,1.446,0.573,1.041,0.965,��,1.0,��
2017/01/02,13:50,1.114,1.846,1.210,2.105,1.450,0.573,1.041,0.967,��쓌,3.2,��
2017/01/02,14:00,1.115,1.848,1.208,2.106,1.448,0.574,1.041,0.965,��쓌,3.2,��
2017/01/02,14:10,1.117,1.843,1.210,2.105,1.448,0.571,1.041,0.966,��쓌,4.0,��
2017/01/02,14:20,1.113,1.847,1.209,2.106,1.450,0.573,1.041,0.965,��쓌,4.4,��
2017/01/02,14:30,1.116,1.848,1.210,2.103,1.450,0.573,1.039,0.968,��쓌,6.6,��
2017/01/02,14:40,1.115,1.847,1.210,2.102,1.448,0.573,1.041,0.965,��쓌,6.6,��
2017/01/02,14:50,1.116,1.843,1.208,2.105,1.448,0.573,1.040,0.967,��쓌,6.5,��
2017/01/02,15:00,1.115,1.846,1.209,2.105,1.447,0.573,1.042,0.966,��,5.8,��
2017/01/02,15:10,1.115,1.846,1.211,2.102,1.449,0.573,1.040,0.966,��,5.3,��
2017/01/02,15:20,1.115,1.848,1.210,2.104,1.449,0.571,1.041,0.966,��,4.3,��
2017/01/02,15:30,1.113,1.849,1.210,2.106,1.451,0.574,1.043,0.964,��,4.1,��
2017/01/02,15:40,1.114,1.845,1.209,2.104,1.450,0.572,1.041,0.966,��,4.8,��
2017/01/02,15:50,1.113,1.845,1.206,2.102,1.452,0.573,1.042,0.966,��,5.3,��
2017/01/02,16:00,1.116,1.844,1.206,2.103,1.450,0.573,1.041,0.966,��,6.0,��
2017/01/02,16:10,1.111,1.847,1.208,2.104,1.449,0.572,1.044,0.965,��,5.4,��
2017/01/02,16:20,1.115,1.845,1.208,2.102,1.452,0.574,1.042,0.964,��,6.0,��
2017/01/02,16:30,1.115,1.843,1.208,2.104,1.451,0.572,1.044,0.966,��,5.5,��
2017/01/02,16:40,1.114,1.840,1.207,2.103,1.450,0.573,1.042,0.966,��,5.1,��
2017/01/02,16:50,1.111,1.844,1.207,2.103,1.449,0.572,1.043,0.966,��,4.7,��
2017/01/02,17:00,1.111,1.842,1.208,2.101,1.449,0.573,1.044,0.965,��쐼,3.9,��
2017/01/02,17:10,1.112,1.844,1.207,2.103,1.445,0.573,1.042,0.966,��쐼,3.8,��
2017/01/02,17:20,1.114,1.843,1.206,2.099,1.447,0.572,1.042,0.964,��쐼,3.9,��
2017/01/02,17:30,1.114,1.845,1.208,2.099,1.449,0.574,1.043,0.963,�쐼,4.0,��
2017/01/02,17:40,1.111,1.842,1.205,2.099,1.446,0.574,1.041,0.966,���쐼,6.0,��
2017/01/02,17:50,1.111,1.843,1.206,2.100,1.449,0.573,1.041,0.966,���쐼,6.5,��
2017/01/02,18:00,1.113,1.842,1.207,2.098,1.446,0.572,1.044,0.964,���쐼,5.7,��
2017/01/02,18:10,1.115,1.845,1.207,2.099,1.449,0.572,1.041,0.965,���쐼,4.6,��
2017/01/02,18:20,1.114,1.844,1.209,2.102,1.449,0.573,1.041,0.963,��,4.6,��
2017/01/02,18:30,1.110,1.844,1.206,2.104,1.448,0.573,1.044,0.965,��,3.1,��
2017/01/02,18:40,1.112,1.843,1.208,2.103,1.452,0.572,1.044,0.964,���k��,3.4,��
2017/01/02,18:50,1.113,1.843,1.207,2.101,1.449,0.573,1.043,0.967,���k��,5.8,��
2017/01/02,19:00,1.111,1.842,1.207,2.105,1.449,0.574,1.042,0.966,���k��,4.7,��
2017/01/02,19:10,1.113,1.844,1.207,2.106,1.446,0.574,1.043,0.964,��,5.5,��
2017/01/02,19:20,1.111,1.843,1.207,2.101,1.450,0.572,1.044,0.966,��,4.9,��
2017/01/02,19:30,1.112,1.842,1.207,2.103,1.448,0.574,1.043,0.965,���쐼,5.2,��
2017/01/02,19:40,1.112,1.842,1.205,2.103,1.449,0.572,1.041,0.966,���쐼,7.1,��
2017/01/02,19:50,1.113,1.843,1.210,2.102,1.447,0.572,1.042,0.966,��,7.3,��
2017/01/02,20:00,1.114,1.843,1.208,2.101,1.450,0.573,1.044,0.963,���쐼,6.7,��
2017/01/02,20:10,1.111,1.842,1.209,2.104,1.450,0.574,1.044,0.965,��,6.0,��
2017/01/02,20:20,1.112,1.840,1.208,2.107,1.448,0.573,1.045,0.968,��,5.9,��
2017/01/02,20:30,1.113,1.842,1.207,2.107,1.451,0.573,1.044,0.964,��,7.0,��
2017/01/02,20:40,1.114,1.841,1.207,2.108,1.446,0.571,1.042,0.966,��,6.1,��
2017/01/02,20:50,1.112,1.839,1.206,2.106,1.448,0.573,1.043,0.965,��,6.6,��
2017/01/02,21:00,1.112,1.841,1.209,2.104,1.450,0.573,1.043,0.967,���쐼,6.8,��
2017/01/02,21:10,1.113,1.841,1.208,2.104,1.449,0.573,1.046,0.966,���쐼,5.3,��
2017/01/02,21:20,1.111,1.841,1.206,2.104,1.450,0.574,1.044,0.966,��,4.9,��
2017/01/02,21:30,1.113,1.843,1.208,2.103,1.449,0.573,1.044,0.965,���k��,4.2,��
2017/01/02,21:40,1.112,1.843,1.207,2.105,1.448,0.572,1.043,0.966,��,3.5,��
2017/01/02,21:50,1.111,1.839,1.206,2.103,1.447,0.573,1.044,0.966,��,4.7,��
2017/01/02,22:00,1.114,1.845,1.207,2.104,1.449,0.573,1.044,0.964,��,4.9,��
2017/01/02,22:10,1.112,1.845,1.208,2.102,1.446,0.573,1.044,0.967,��,4.5,��
2017/01/02,22:20,1.112,1.844,1.209,2.102,1.448,0.574,1.042,0.967,���쐼,4.9,��
2017/01/02,22:30,1.110,1.839,1.208,2.105,1.449,0.571,1.042,0.967,��,5.6,��
2017/01/02,22:40,1.113,1.842,1.206,2.100,1.447,0.572,1.044,0.964,��,5.1,��
2017/01/02,22:50,1.111,1.840,1.209,2.103,1.447,0.574,1.041,0.966,��,4.4,��
2017/01/02,23:00,1.113,1.840,1.207,2.103,1.449,0.572,1.043,0.967,���쐼,3.6,��
2017/01/02,23:10,1.111,1.840,1.208,2.101,1.447,0.575,1.040,0.966,�쐼,3.4,��
2017/01/02,23:20,1.112,1.846,1.207,2.104,1.448,0.571,1.043,0.966,���쐼,3.2,��
2017/01/02,23:30,1.111,1.845,1.206,2.100,1.445,0.573,1.043,0.964,���쐼,4.3,��
2017/01/02,23:40,1.110,1.836,1.206,2.102,1.447,0.573,1.043,0.965,���쐼,5.1,��
2017/01/02,23:50,1.112,1.843,1.205,2.101,1.448,0.575,1.043,0.965,��,4.2,��
